Regional Weather Roundup
Issued by NWS

Home | Current Version | Previous Version | Text Only | Print | Product List | Glossary Off
Versions: 1 2 3 4 5 6 7 8 9 10 11 12 13 14 15 16 17 18 19 20 21 22 23 24 25 26 27 28 29 30 31 32 33 34 35 36 37 38 39 40 41 42 43 44 45 46 47 48 49 50

000
ASUS43 KDTX 050501
RWRMI
MICHIGAN HOURLY REGIONAL WEATHER ROUNDUP
NATIONAL WEATHER SERVICE DETROIT/PONTIAC MI
100 AM EDT TUE MAY 05 2015

NOTE: "FAIR" INDICATES FEW OR NO CLOUDS BELOW 12,000 FEET WITH NO
SIGNIFICANT WEATHER AND/OR OBSTRUCTION TO VISIBILITY.

MIZ047>049-052>055-059>063-066>070-074>076-081>083-050600-
SOUTHEAST LOWER MICHIGAN

CITY           SKY/WX    TMP DP  RH WIND       PRES   REMARKS
ADRIAN         PTCLDY    58  57  97 CALM      30.19S FOG
ALMA           CLEAR     55  38  54 N6        30.23S
ANN ARBOR      PTCLDY    60  56  86 CALM      30.18S
BAD AXE        CLEAR     48  35  60 NE3       30.24R
CARO           PTCLDY    52  43  73 CALM      30.22S
DETROIT CITY   PTCLDY    60  51  72 NE10G20   30.20R
DETROIT        MOCLDY    64  59  83 W3        30.18S HAZE
FLINT          MOCLDY    61  42  49 E15G22    30.21R
GROSSE ILE     MOCLDY    63  61  94 CALM      30.16S
HILLSDALE      CLEAR     57  56  97 CALM      30.19S
HOWELL         CLEAR     60  50  67 CALM      30.19S

CITY           SKY/WX    TMP DP  RH WIND       PRES   REMARKS
JACKSON        CLEAR     57  54  89 N3        30.19S
LAMBERTVILLE   MOCLDY    63  59  88 CALM      30.18F FOG
LANSING        CLEAR     58  40  51 N6        30.21S
LAPEER         CLOUDY    56  40  55 E3        30.23R
MASON          CLEAR     60  43  54 N3        30.20S
MONROE         MOCLDY    61  59  94 CALM      30.16S FOG
PONTIAC        PTCLDY    58  42  55 NE10      30.20R
PORT HOPE        N/A     46  36  68 CALM      30.22R
PORT HURON     PTCLDY    50  43  76 N3        30.23R
TRI CITIES     PTCLDY    54  45  71 NE5       30.24R
MIDLAND        MOCLDY    51  41  69 CALM      30.23R
TROY           PTCLDY    61  45  55 NE13      30.23R
SAGINAW HB     PTCLDY    54  43  66 NE5       30.23R
$$
MIZ043>046-050>051-056>058-064>065-071>073-077>080-050600-
SOUTHWEST LOWER MICHIGAN

CITY           SKY/WX    TMP DP  RH WIND       PRES   REMARKS
BATTLE CREEK   CLEAR     58  53  84 N6        30.21R
BENTON HARBOR  PTCLDY    50  48  93 CALM      30.18S
BIG RAPIDS     CLEAR     48  36  62 CALM      30.23R
COLDWATER      CLEAR     55  53  93 CALM      30.19R
FREMONT        FAIR      54  29  39 NE5       30.21S
HOLLAND        PTCLDY    50  44  80 CALM      30.21R
GRAND RAPIDS   FAIR      58  37  45 NE8       30.22R
IONIA          FAIR      57  36  45 NE7       30.22R
KALAMAZOO      PTCLDY    57  52  83 CALM      30.20R
LUDINGTON      PTCLDY    52  35  51 NE7       30.22S
MARSHALL       CLEAR     55  53  92 CALM      30.20R
MOUNT PLEASANT PTCLDY    52  39  61 CALM      30.23S
MUSKEGON       CLEAR     58  34  40 NE9       30.21R
SOUTH HAVEN    CLEAR     49  47  91 CALM      30.19S
$$
MIZ016>042-050600-
NORTHERN LOWER MICHIGAN

CITY           SKY/WX    TMP DP  RH WIND       PRES   REMARKS
ALPENA         PTCLDY    46  36  68 NW7       30.26R
BEAVER ISLAND  PTCLDY    37  34  89 CALM      30.28R
BELLAIRE       MOCLDY    39  37  91 CALM      30.27S
CADILLAC       PTCLDY    46  33  62 N3        30.24R
CHARLEVOIX     MOCLDY    43  36  75 CALM      30.30R
FRANKFORT      MOCLDY    53  31  43 CALM      30.25R
GAYLORD        PTCLDY    44  35  70 N3        30.26R
GRAYLING       PTCLDY    37  32  81 CALM      30.26S
HARBOR SPRINGS MOCLDY    40  34  79 CALM      30.28R
HOUGHTON LAKE  CLEAR     49  33  54 N7        30.24R
MANISTEE       MOCLDY    48  34  57 E8        30.24S
OSCODA         CLEAR     48  36  63 N8        30.21S
PELLSTON       PTCLDY    36  32  85 CALM      30.28R
ROGERS CITY    MOCLDY    46  37  71 NW3       30.28R
TRAVERSE CITY  MOCLDY    41  37  86 CALM      30.25S
$$
MIZ007>008-015-050600-
EASTERN UPPER MICHIGAN

CITY           SKY/WX    TMP DP  RH WIND       PRES   REMARKS
KINROSS        PTCLDY    41  37  87 NW7       30.26R
MACKINAC ISLAN PTCLDY    42  35  75 W5        30.26S
NEWBERRY       CLEAR     39  34  82 CALM      30.26S
S. S. MARIE    PTCLDY    45  35  68 NW7       30.25R
MUNISING         N/A     38  33  82 S8        30.26R WCI  32
$$
MIZ004>006-011>014-085-050600-
CENTRAL UPPER MICHIGAN

CITY           SKY/WX    TMP DP  RH WIND       PRES   REMARKS
MANISTIQUE     PTCLDY    36  33  89 N3        30.26R
ESCANABA       PTCLDY    43  34  70 W3        30.28R
MENOMINEE      PTCLDY    46  34  61 E5        30.28R
SAWYER-GWINN   CLEAR     37  32  81 CALM      30.27R
$$
MIZ001>003-009>011-084-050600-
WESTERN UPPER MICHIGAN

CITY           SKY/WX    TMP DP  RH WIND       PRES   REMARKS
IRON MOUNTAIN  CLEAR     44  36  73 CALM      30.27R
HOUGHTON       CLEAR     43  33  68 NW3       30.24R
COPPER HARBOR    N/A     42  36  79 CALM      30.24S
IRONWOOD       CLEAR     37  34  87 CALM      30.24R
$$

ABBREVIATIONS USED IN REMARKS
   TC - TEMPERATURE IN CELSIUS
  WCI - WIND CHILL INDEX
   HX - HEAT INDEX
  VSB - VISIBILITY



USA.gov is the U.S. government's official web portal to all federal, state and local government web resources and services.